Flag for Ethiopia Weather past 2 weeks in Addis Ababa, Ethiopia

Now
57 °F

Light rain. Broken clouds.


Feels Like: 55 °F
Forecast: 49 / 67 °F
Wind: 12 mph from Southeast

Location: Addis Ababa Airport

Current Time: Aug 20, 2014 at 10:06:58 AM

Latest Report: Aug 20, 2014 at 9:00 AM


Visibility: 5 mi

Pressure: 30.42 "Hg

Humidity: 88%

Dew point: 54 °F

Location of Addis AbabaLocation

Historic Weather in Addis Ababa — Graph

°F

Addis Ababa temperature yesterday

Maximum temperature yesterday: 70 °F (at 5:00 PM)
Minimum temperature yesterday: 54 °F (at 4:00 AM)
Average temperature yesterday: 61 °F

Past Weeks' High & Low Weather Summary

 TemperatureHumidityPressure
High72 °F (Aug 6, 2:00 PM)100% (Aug 6, 11:00 PM)30.45 "Hg (Aug 6, 11:00 PM)
Low54 °F (Aug 7, 4:00 AM)56% (Aug 5, 6:00 PM)30.24 "Hg (Aug 5, 4:00 PM)
Average60 °F79%30.33 "Hg
* Reported Aug 5 9:00 AM — Aug 20 9:00 AM, Addis Ababa, Weather by CustomWeather, © 2014

Note: Actual official high and low records may vary slightly from our data, if they occured in-between our weather recording intervals... More about our weather records

Advertising

Addis Ababa weather history for previous 24 hours

 ConditionsComfort  
Time TempWeatherWind HumidityBarometerVisibility
9:00 AM
Aug 20
57 °FLight rain. Broken clouds.12 mph88%30.42 "Hg5 mi
8:00 AM59 °FHail. Broken clouds.5 mph82%30.42 "Hg4 mi
7:00 AM57 °FLight rain. Broken clouds.No wind88%30.39 "Hg4 mi
6:00 AM59 °FPassing clouds.7 mph82%30.36 "HgN/A
5:00 AM57 °FPartly cloudy.5 mph82%30.33 "HgN/A
4:00 AM55 °FPartly cloudy.5 mph82%30.33 "HgN/A
3:00 AM55 °FCool.9 mph94%30.33 "HgN/A
2:00 AM57 °FCool.5 mph82%30.36 "HgN/A
1:00 AM59 °FPassing clouds.9 mph82%30.36 "HgN/A
12:00 AM59 °FPassing clouds.2 mph82%30.36 "HgN/A
11:00 PM
Aug 19
59 °FPassing clouds.5 mph82%30.39 "HgN/A
10:00 PM61 °FPassing clouds.2 mph72%30.39 "HgN/A
9:00 PM61 °FPassing clouds.2 mph72%30.36 "HgN/A
8:00 PM63 °FPassing clouds.2 mph83%30.33 "HgN/A
7:00 PM64 °FPassing clouds.2 mph73%30.30 "HgN/A
6:00 PM66 °FScattered clouds.5 mph73%30.27 "HgN/A
5:00 PM70 °FScattered clouds.7 mph69%30.27 "HgN/A
4:00 PM66 °FScattered clouds.7 mph68%30.30 "HgN/A
3:00 PM59 °FRain. Partly sunny.5 mph72%30.30 "Hg6 mi
2:00 PM63 °FThunderstorms. Mostly cloudy.2 mph73%30.36 "Hg3 mi
1:00 PM66 °FPartly sunny.9 mph68%30.36 "HgN/A
12:00 PM66 °FPartly sunny.5 mph60%30.39 "HgN/A
11:00 AM64 °FScattered clouds.6 mph68%30.42 "HgN/A
10:00 AM61 °FPartly sunny.5 mph72%30.42 "HgN/A
Weather by CustomWeather, © 2014

See weather overviewHow to use our weather pages